• In Italy
  • List of Countries
  • For 7 days
  • Water Temperature
  • Satellite Maps
  • Weather Map
  • Weather Widgets
  • user-avatar
    Login

    Hourly Weather Dumfries

    Today, 21 October, Sunday

    Time Temperature Precipitation Wind Pressure Humidity
    00:00 +14°C° 0.1 mm 4 mps 763 mmHg 96%
    01:00 +15°C° 0.1 mm 5 mps 763 mmHg 96%
    02:00 +15°C° 0.1 mm 5 mps 762 mmHg 95%
    03:00 +15°C° 0.1 mm 5 mps 762 mmHg 95%
    04:00 +15°C° 0.3 mm 5 mps 762 mmHg 95%
    05:00 +15°C° 0.3 mm 5 mps 762 mmHg 94%
    06:00 +15°C° 0.3 mm 6 mps 762 mmHg 94%
    07:00 +14°C° 0.4 mm 5 mps 762 mmHg 92%
    08:00 +13°C° 0.4 mm 5 mps 762 mmHg 89%
    09:00 +12°C° 0.4 mm 5 mps 763 mmHg 87%
    10:00 +10°C° 0.2 mm 5 mps 763 mmHg 87%
    11:00 +10°C° 0.2 mm 5 mps 764 mmHg 87%
    12:00 +9°C° 0.2 mm 5 mps 765 mmHg 86%
    13:00 +9°C° 0 mm 6 mps 765 mmHg 82%
    14:00 +10°C° 0 mm 6 mps 766 mmHg 77%
    15:00 +10°C° 0 mm 7 mps 766 mmHg 73%
    16:00 +9°C° 0 mm 6 mps 767 mmHg 74%
    17:00 +8°C° 0 mm 5 mps 767 mmHg 76%
    18:00 +6°C° 0 mm 5 mps 768 mmHg 77%
    19:00 +6°C° 0 mm 5 mps 768 mmHg 77%
    20:00 +6°C° 0 mm 5 mps 769 mmHg 76%
    21:00 +5°C° 0 mm 5 mps 770 mmHg 76%
    22:00 +5°C° 0 mm 4 mps 770 mmHg 76%
    23:00 +5°C° 0 mm 4 mps 771 mmHg 76%

    Tomorrow, 22 October, Monday

    Time Temperature Precipitation Wind Pressure Humidity
    00:00 +5°C° 0 mm 4 mps 771 mmHg 76%
    01:00 +5°C° 0 mm 4 mps 771 mmHg 76%
    02:00 +4°C° 0 mm 4 mps 772 mmHg 77%
    03:00 +4°C° 0 mm 3 mps 772 mmHg 78%
    04:00 +4°C° 0 mm 4 mps 772 mmHg 80%
    05:00 +5°C° 0 mm 4 mps 773 mmHg 81%
    06:00 +5°C° 0 mm 4 mps 773 mmHg 82%
    07:00 +6°C° 0 mm 4 mps 773 mmHg 81%
    08:00 +7°C° 0 mm 4 mps 773 mmHg 80%
    09:00 +7°C° 0 mm 5 mps 773 mmHg 79%
    10:00 +8°C° 0 mm 5 mps 773 mmHg 77%
    11:00 +9°C° 0 mm 6 mps 773 mmHg 75%
    12:00 +9°C° 0 mm 7 mps 773 mmHg 74%
    13:00 +9°C° 0 mm 7 mps 773 mmHg 75%
    14:00 +9°C° 0 mm 8 mps 772 mmHg 77%
    15:00 +9°C° 0 mm 8 mps 772 mmHg 78%
    16:00 +9°C° 0 mm 8 mps 771 mmHg 79%
    17:00 +9°C° 0 mm 8 mps 771 mmHg 80%
    18:00 +8°C° 0 mm 9 mps 771 mmHg 82%
    19:00 +8°C° 0 mm 9 mps 771 mmHg 81%
    20:00 +10°C° 0 mm 9 mps 770 mmHg 81%
    21:00 +10°C° 0 mm 9 mps 770 mmHg 81%
    22:00 +10°C° 0 mm 9 mps 770 mmHg 82%
    23:00 +10°C° 0 mm 9 mps 769 mmHg 82%

    Day after tomorrow, 23 October, Tuesday

    Time Temperature Precipitation Wind Pressure Humidity
    00:00 +10°C° 0 mm 9 mps 769 mmHg 82%
    01:00 +10°C° 0 mm 9 mps 768 mmHg 82%
    02:00 +10°C° 0 mm 9 mps 768 mmHg 83%
    03:00 +10°C° 0 mm 9 mps 768 mmHg 83%
    04:00 +10°C° 0 mm 9 mps 767 mmHg 83%
    05:00 +10°C° 0 mm 9 mps 767 mmHg 82%
    06:00 +10°C° 0 mm 9 mps 767 mmHg 82%
    07:00 +10°C° 0.1 mm 9 mps 767 mmHg 84%
    08:00 +11°C° 0.1 mm 8 mps 767 mmHg 85%
    09:00 +11°C° 0.1 mm 8 mps 767 mmHg 86%
    10:00 +11°C° 0.2 mm 8 mps 767 mmHg 87%
    11:00 +11°C° 0.2 mm 8 mps 767 mmHg 88%
    12:00 +12°C° 0.2 mm 7 mps 767 mmHg 89%
    13:00 +12°C° 0.1 mm 7 mps 767 mmHg 89%
    14:00 +12°C° 0.1 mm 7 mps 767 mmHg 89%
    15:00 +12°C° 0.1 mm 7 mps 767 mmHg 89%
    16:00 +13°C° 0.1 mm 6 mps 767 mmHg 90%
    17:00 +13°C° 0.1 mm 6 mps 767 mmHg 91%
    18:00 +13°C° 0.1 mm 6 mps 767 mmHg 91%
    19:00 +13°C° 0.1 mm 6 mps 767 mmHg 91%
    20:00 +13°C° 0.1 mm 6 mps 767 mmHg 91%
    21:00 +14°C° 0.1 mm 6 mps 767 mmHg 90%
    22:00 +14°C° 0 mm 6 mps 768 mmHg 90%
    23:00 +14°C° 0 mm 6 mps 768 mmHg 90%

    24 October, Wednesday

    Time Temperature Precipitation Wind Pressure Humidity
    00:00 +14°C° 0 mm 6 mps 768 mmHg 90%
    01:00 +13°C° 0 mm 6 mps 768 mmHg 90%
    02:00 +13°C° 0 mm 6 mps 768 mmHg 90%
    03:00 +13°C° 0 mm 5 mps 768 mmHg 90%
    04:00 +13°C° 0 mm 5 mps 768 mmHg 90%
    05:00 +13°C° 0 mm 5 mps 768 mmHg 91%
    06:00 +12°C° 0 mm 5 mps 768 mmHg 91%
    07:00 +12°C° 0 mm 5 mps 768 mmHg 90%
    08:00 +12°C° 0 mm 5 mps 768 mmHg 89%
    09:00 +12°C° 0 mm 5 mps 768 mmHg 87%
    10:00 +12°C° 0 mm 5 mps 768 mmHg 85%
    11:00 +12°C° 0 mm 5 mps 768 mmHg 82%
    12:00 +12°C° 0 mm 5 mps 768 mmHg 79%
    13:00 +12°C° 0 mm 5 mps 768 mmHg 79%
    14:00 +10°C° 0 mm 6 mps 768 mmHg 79%
    15:00 +10°C° 0 mm 6 mps 767 mmHg 80%
    16:00 +9°C° 0 mm 5 mps 767 mmHg 82%
    17:00 +9°C° 0 mm 5 mps 767 mmHg 84%
    18:00 +8°C° 0 mm 5 mps 767 mmHg 86%
    19:00 +8°C° 0 mm 5 mps 767 mmHg 87%
    20:00 +8°C° 0 mm 4 mps 767 mmHg 87%
    21:00 +8°C° 0 mm 4 mps 767 mmHg 88%
    22:00 +8°C° 0 mm 4 mps 767 mmHg 87%
    23:00 +8°C° 0 mm 4 mps 766 mmHg 87%

    25 October, Thursday

    Time Temperature Precipitation Wind Pressure Humidity
    00:00 +8°C° 0 mm 4 mps 766 mmHg 87%
    01:00 +8°C° 0 mm 4 mps 766 mmHg 87%
    02:00 +8°C° 0 mm 4 mps 765 mmHg 86%
    03:00 +8°C° 0 mm 5 mps 765 mmHg 86%
    04:00 +8°C° 0 mm 4 mps 764 mmHg 87%
    05:00 +8°C° 0 mm 4 mps 764 mmHg 87%
    06:00 +8°C° 0 mm 4 mps 763 mmHg 87%
    07:00 +10°C° 0 mm 4 mps 763 mmHg 86%
    08:00 +9°C° 0 mm 5 mps 762 mmHg 85%
    09:00 +9°C° 0 mm 5 mps 762 mmHg 84%
    10:00 +9°C° 0 mm 5 mps 762 mmHg 82%
    11:00 +10°C° 0 mm 5 mps 761 mmHg 81%
    12:00 +10°C° 0 mm 5 mps 761 mmHg 79%
    13:00 +10°C° 0 mm 5 mps 760 mmHg 80%
    14:00 +10°C° 0 mm 5 mps 759 mmHg 80%
    15:00 +10°C° 0 mm 5 mps 759 mmHg 81%
    16:00 +9°C° 0.1 mm 5 mps 758 mmHg 83%
    17:00 +9°C° 0.1 mm 5 mps 757 mmHg 86%
    18:00 +8°C° 0.1 mm 5 mps 756 mmHg 88%
    19:00 +8°C° 0.1 mm 5 mps 756 mmHg 88%
    20:00 +8°C° 0.1 mm 5 mps 755 mmHg 89%
    21:00 +8°C° 0.1 mm 5 mps 755 mmHg 89%
    22:00 +8°C° 0.3 mm 5 mps 755 mmHg 89%
    23:00 +8°C° 0.3 mm 5 mps 755 mmHg 88%

    26 October, Friday

    Time Temperature Precipitation Wind Pressure Humidity
    00:00 +7°C° 0.3 mm 5 mps 755 mmHg 87%
    01:00 +6°C° 0.1 mm 4 mps 755 mmHg 87%
    02:00 +5°C° 0.1 mm 4 mps 755 mmHg 86%
    03:00 +4°C° 0.1 mm 4 mps 755 mmHg 86%
    04:00 +4°C° 0 mm 3 mps 755 mmHg 86%
    05:00 +3°C° 0 mm 3 mps 755 mmHg 87%
    06:00 +3°C° 0 mm 3 mps 756 mmHg 87%
    07:00 +4°C° 0 mm 3 mps 756 mmHg 84%
    08:00 +4°C° 0 mm 4 mps 756 mmHg 82%
    09:00 +5°C° 0 mm 4 mps 757 mmHg 79%
    10:00 +5°C° 0 mm 5 mps 757 mmHg 75%
    11:00 +5°C° 0 mm 6 mps 757 mmHg 70%
    12:00 +7°C° 0 mm 6 mps 757 mmHg 65%
    13:00 +5°C° 0.1 mm 6 mps 758 mmHg 64%
    14:00 +5°C° 0.1 mm 6 mps 758 mmHg 63%
    15:00 +5°C° 0.1 mm 6 mps 758 mmHg 62%
    16:00 +4°C° 0 mm 6 mps 758 mmHg 65%
    17:00 +3°C° 0 mm 5 mps 758 mmHg 67%
    18:00 +2°C° 0 mm 5 mps 758 mmHg 70%
    19:00 +1°C° 0 mm 5 mps 758 mmHg 71%
    20:00 +1°C° 0 mm 5 mps 758 mmHg 72%
    21:00 +1°C° 0 mm 5 mps 758 mmHg 73%
    22:00 +1°C° 0 mm 5 mps 758 mmHg 74%
    23:00 +1°C° 0 mm 5 mps 758 mmHg 74%
    Show more